User: anonymous   Login
Location: Unspecified
(0.0000°N, 0.0000°E)
Time: 01:05:39
(UTC+00:00)
Language:

PEASSS - Orbit

View from above orbital plane
View from above orbital plane
View from above satellite
View from above satellite

Ground track
Ground track

The orbit data is extracted from the following two-line orbital elements,

1 42015U 17008BV  21023.43002471  .00001420  00000-0  57472-4 0  9993
2 42015  97.3320  92.1083 0004604 262.7538  97.3177 15.26305837218890
Epoch (UTC): 23 January 2021 10:19:14
Eccentricity: 0.0004604
inclination: 97.3320°
perigee height: 484 km
apogee height: 490 km
right ascension of ascending node: 92.1083°
argument of perigee: 262.7538°
revolutions per day: 15.26305837
mean anomaly at epoch: 97.3177°
orbit number at epoch: 21889

The dashed part of the orbit path shows where the satellite is in the earth's shadow,  

DLR